Location: Orange
(33.2833°S, 149.1000°E)
Time: 21:00:16
(UTC+11:00)

Envisat - Pass Details

Date: 01 October 2022
Orbit: 763 x 765 km, 98.2° (Epoch: 01 December)

Event Time Altitude Azimuth Distance (km) Brightness Sun altitude
Exits shadow 02:16:52 - 65° (ENE) 3,030 6.3 -40.4°
Reaches altitude 10° 02:19:44 10° 87° (E) 2,311 5.9 -40.0°
Maximum altitude 02:22:06 13° 115° (ESE) 2,088 5.8 -39.6°
Drops below altitude 10° 02:24:29 10° 143° (SE) 2,323 6.1 -39.2°
Sets 02:28:00 0° 168° (SSE) 3,259 6.8 -38.6°
